Location: Poughquag
(41.6090°N, 73.6820°W)
Time: 12:52:07
(UTC-04:00)

Vanguard 2 - Pass Details

Date: 05 June 2020
Orbit: 552 x 2938 km, 32.9° (Epoch: 05 July)

Event Time Altitude Azimuth Distance (km) Brightness Sun altitude
Rises 23:43:45 0° 272° (W) 4,927 11.9 -23.7°
Reaches altitude 10° 23:48:51 10° 256° (WSW) 3,413 10.8 -24.0°
Enters shadow 23:52:53 17° 227° (SW) 2,527 9.9 -24.2°
Maximum altitude 23:53:39 17° 220° (SW) 2,433 - -24.2°
Drops below altitude 10° 23:57:25 10° 181° (S) 2,527 - -24.4°
Sets 00:00:24 0° 159° (SSE) 3,181 - -24.5°
